Hourly Data Report for October 05, 2020

OTTAWA INTL A
ONTARIO
Current Station Operator: NAVCAN

45°19'00.000" N
75°40'00.000" W
114.90 m
6106001
71628
YOW

Download Data

Hourly Data (October 2020)
Hourly Data Report for October 5, 2020
TIME Temp Definition
°C
Dew Point Definition
°C
Rel Hum Definition
%
Wind Dir Definition
10's deg

Wind Spd Definition
km/h
Visibility Definition
km
Stn Press Definition
kPa
Hmdx Definition


Wind Chill Definition


Weather Definition


00:00 8.9 8.1 95 36 12 24.1 100.51     LegendNANA
01:00 8.6 7.9 95 4 9 24.1 100.47     Mostly Cloudy
02:00 8.7 8.2 97 2 9 24.1 100.46     LegendNANA
03:00 8.6 8.2 97 3 10 24.1 100.45     LegendNANA
04:00 8.7 8.3 97 5 9 24.1 100.47     Rain Showers
05:00 8.8 8.4 98 3 13 24.1 100.51     LegendNANA
06:00 8.9 8.5 97 34 10 16.1 100.56     Rain
07:00 9.0 8.6 97 36 6 24.1 100.60     Rain
08:00 9.4 8.8 96 32 8 24.1 100.63     LegendNANA
09:00 10.1 8.8 91 35 3 24.1 100.65     LegendNANA
10:00 11.0 9.0 87 27 8 24.1 100.67     Cloudy
11:00 11.5 8.7 83 27 16 24.1 100.66     LegendNANA
12:00 11.4 8.5 82 28 18 24.1 100.67     LegendNANA
13:00 11.3 7.7 78 26 10 24.1 100.67     Cloudy
14:00 11.6 8.0 79 27 14 24.1 100.64     LegendNANA
15:00 11.1 7.6 79 26 16 24.1 100.65     LegendNANA
16:00 11.0 7.2 77 29 13 24.1 100.61     Mostly Cloudy
17:00 10.5 7.7 83 26 4 24.1 100.59     LegendNANA
18:00 8.7 7.0 89 15 8 24.1 100.54     LegendNANA
19:00 7.5 6.8 96 16 8 24.1 100.57     Clear
20:00 7.5 6.4 93 15 10 24.1 100.54     LegendNANA
21:00 7.8 6.7 93 15 8 24.1 100.52     LegendNANA
22:00 7.2 6.4 94 18 8 24.1 100.50     Mainly Clear
23:00 6.6 6.1 97 17 8 24.1 100.49     LegendNANA

Notes on Data Quality.

Legend

  • E = Estimated
  • M = Missing
  • NA = Not Available*
  • [empty] = Indicates an unobserved value
Date modified: